Change the Weather History Date:

Sunday, January 13, 2013

  Actual Average Record
Temperature  
Mean Temperature 66 °F 45 °F  
Max Temperature 79 °F 57 °F 79 °F (2005)
Min Temperature 52 °F 33 °F 9 °F (1886)
Degree Days  
Heating Degree Days 0 20  
Month to date heating degree days 149 260  
Since 1 July heating degree days 1075 1235  
Cooling Degree Days 1 0  
Month to date cooling degree days 6 0  
Year to date cooling degree days 6 0  
Growing Degree Days 15 (Base 50)    
Moisture  
Dew Point 57 °F    
Average Humidity 77    
Maximum Humidity 100    
Minimum Humidity 54    
Precipitation  
Precipitation 0.00 in 0.12 in 2.30 in (1972)
Month to date precipitation 0.09 1.60  
Year to date precipitation 0.09 1.60  
Sea Level Pressure  
Sea Level Pressure 30.10 in    
Wind  
Wind Speed 6 mph (SSW)    
Max Wind Speed 17 mph    
Max Gust Speed 24 mph    
Visibility 8 miles    
Events Fog    
T = Trace of Precipitation, MM = Missing Value Source: NWS Daily Summary

Daily Weather History Graph

Daily Weather History Graph

Search for Another Location

Airport or City:

Trip Planner

Search our weather history database for the weather conditions in past years. The results will help you decide how hot, cold, wet, or windy it might be!

Date:

Astronomy

Jan. 13, 2013 Rise Set
Actual Time 7:32 AM EST 5:41 PM EST
Civil Twilight 7:05 AM EST 6:08 PM EST
Nautical Twilight 6:34 AM EST 6:39 PM EST
Astronomical Twilight 6:04 AM EST 7:09 PM EST
Moon 8:38 AM EST (1/13) 8:08 PM EST (1/13)
Length of Visible Light 11h 03m
Length of Day
10h 09m
Waxing Crescent, 5% of the Moon is Illuminated
Jan 13
Waxing Crescent
Jan 18
First Quarter
Jan 26
Full
Feb 3
Last Quarter
Feb 10
New

Hourly Weather History & Observations

Time (EST) Temp. Dew Point Humidity Pressure Visibility Wind Dir Wind Speed Gust Speed Precip Events Conditions
12:53 AM 61.0 °F 57.9 °F 90% 30.10 in 10.0 mi South 6.9 mph - N/A   Clear
1:53 AM 63.0 °F 59.0 °F 87% 30.10 in 10.0 mi South 9.2 mph - N/A   Overcast
2:53 AM 61.0 °F 57.0 °F 87% 30.10 in 10.0 mi SSW 5.8 mph - N/A   Partly Cloudy
3:53 AM 60.1 °F 55.9 °F 86% 30.11 in 10.0 mi South 4.6 mph - N/A   Clear
4:53 AM 57.9 °F 55.9 °F 93% 30.09 in 10.0 mi Calm Calm - N/A   Mostly Cloudy
5:53 AM 55.9 °F 54.0 °F 93% 30.10 in 4.0 mi Calm Calm - N/A   Mostly Cloudy
6:53 AM 55.0 °F 54.0 °F 96% 30.12 in 6.0 mi Calm Calm - N/A   Partly Cloudy
7:14 AM 53.6 °F 53.6 °F 100% 30.13 in 1.8 mi Calm Calm - N/A   Partly Cloudy
7:21 AM 53.6 °F 53.6 °F 100% 30.13 in 4.0 mi Calm Calm - N/A   Scattered Clouds
7:44 AM 51.8 °F 51.8 °F 100% 30.14 in 4.0 mi Calm Calm - N/A Fog Shallow Fog
7:53 AM 53.1 °F 53.1 °F 100% 30.15 in 4.0 mi Calm Calm - N/A Fog Shallow Fog
8:00 AM 53.6 °F 53.6 °F 100% 30.15 in 2.5 mi Calm Calm - N/A Fog Shallow Fog
8:18 AM 55.4 °F 55.4 °F 100% 30.15 in 3.0 mi Calm Calm - N/A Fog Shallow Fog
8:53 AM 59.0 °F 57.9 °F 96% 30.16 in 5.0 mi Calm Calm - N/A Fog Shallow Fog
9:53 AM 62.1 °F 60.1 °F 93% 30.16 in 7.0 mi Calm Calm - N/A   Mostly Cloudy
11:53 AM 75.0 °F 60.1 °F 60% 30.12 in 10.0 mi SW 11.5 mph 19.6 mph N/A   Clear
12:53 PM 75.9 °F 60.1 °F 58% 30.08 in 10.0 mi SW 10.4 mph - N/A   Scattered Clouds
1:53 PM 77.0 °F 60.1 °F 56% 30.06 in 10.0 mi SSW 10.4 mph - N/A   Partly Cloudy
2:53 PM 78.1 °F 60.1 °F 54% 30.06 in 10.0 mi SSW 13.8 mph - N/A   Mostly Cloudy
3:53 PM 77.0 °F 59.0 °F 54% 30.07 in 10.0 mi SSW 10.4 mph - N/A   Partly Cloudy
4:53 PM 75.0 °F 60.1 °F 60% 30.08 in 10.0 mi South 4.6 mph - N/A   Clear
5:53 PM 71.1 °F 60.1 °F 68% 30.08 in 10.0 mi South 4.6 mph - N/A   Mostly Cloudy
6:53 PM 68.0 °F 59.0 °F 73% 30.08 in 10.0 mi South 4.6 mph - N/A   Partly Cloudy
7:53 PM 68.0 °F 59.0 °F 73% 30.08 in 10.0 mi South 6.9 mph - N/A   Partly Cloudy
8:53 PM 66.9 °F 59.0 °F 76% 30.09 in 10.0 mi South 6.9 mph - N/A   Clear
9:53 PM 66.0 °F 60.1 °F 81% 30.10 in 10.0 mi South 6.9 mph - N/A   Mostly Cloudy
10:53 PM 66.9 °F 60.1 °F 79% 30.08 in 10.0 mi South 10.4 mph - N/A   Clear
11:53 PM 66.0 °F 59.0 °F 78% 30.10 in 10.0 mi South 8.1 mph - N/A   Clear